Location: Waco, TX
(31.5480°N, 97.1670°W)
Time: 17:51:36
(UTC-05:00)

ISS - Pass Details

Date: 17 June 2018
Orbit: 403 x 407 km, 51.6° (Epoch: 21 June)

Event Time Altitude Azimuth Distance (km) Brightness Sun altitude
Rises 18:48:46 0° 313° (NW) 2,323 1.1 20.3°
Reaches altitude 10° 18:50:51 10° 311° (NW) 1,460 0.4 19.9°
Maximum altitude 18:54:07 73° 227° (SW) 424 -3.3 19.2°
Drops below altitude 10° 18:57:21 10° 142° (SE) 1,449 -1.4 18.5°
Sets 18:59:25 0° 140° (SE) 2,304 -0.5 18.1°
